EAGLET 1 (43790 NORAD) Tracking and Keplerian Element Data

This shows tracking and keplerian element data for the satellite.

Feedback or suggestion? Click here.




ElementValue
Catalog43790
NameEAGLET 1
Epoch Orbit642
Epoch Day17.78338801
Epoch Year2019
RAAN91.5273
Inclination97.764
Eccentricity0.0014731
Argument of Perigee117.8187
Mean Anonmoly242.4529
Mean Motion14.95431494
Decay Rate-2.99E-06
L11 43790U 18099AJ 19017.78338801 -.00000299 00000-0 -21748-4 0 9994
L22 43790 97.7640 91.5273 0014731 117.8187 242.4529 14.95431494 6428

Live tracking and technical data element details for EAGLET 1 (NORAD 43790). EAGLET 1 can be tracked NOW for your location showing map with azimuth and elevation plus other details from your city location.

Track the satellite on the map from your city or location and see movement details for azimuth, elevation, latitude, longitude, range, height, and movement on the map or in text.







IsCatalogInMostPopularTable: catalog: 43790, numindb: 24
Update: records affected: 1



GetName: 43790 EAGLET 1

Hit Count: updated at: Wed, 23 Jan 2019 02:41:41 GMT